Previsão horária em Plissy

Hoje, 3 Março, Quarta-feira

Tempo Temperatura Precipitação Vento Pressão Humidade
00:00 -1°C° 0 mm 3 m/s 751 mmHg 90%
01:00 -2°C° 0 mm 3 m/s 751 mmHg 91%
02:00 -2°C° 0 mm 3 m/s 752 mmHg 94%
03:00 -2°C° 0 mm 3 m/s 751 mmHg 94%
04:00 -2°C° 0 mm 3 m/s 751 mmHg 94%
05:00 -2°C° 0 mm 3 m/s 751 mmHg 94%
06:00 -3°C° 0 mm 4 m/s 751 mmHg 93%
07:00 -3°C° 0 mm 4 m/s 751 mmHg 91%
08:00 -3°C° 0 mm 4 m/s 751 mmHg 89%
09:00 -2°C° 0 mm 4 m/s 751 mmHg 84%
10:00 -1°C° 0 mm 4 m/s 751 mmHg 80%
11:00 -1°C° 0 mm 4 m/s 751 mmHg 76%
12:00 0°C° 0 mm 4 m/s 750 mmHg 72%
13:00 +1°C° 0 mm 4 m/s 750 mmHg 68%
14:00 +3°C° 0 mm 4 m/s 749 mmHg 63%
15:00 +3°C° 0 mm 4 m/s 748 mmHg 67%
16:00 +1°C° 0 mm 4 m/s 747 mmHg 72%
17:00 +1°C° 0 mm 4 m/s 747 mmHg 76%
18:00 +1°C° 0 mm 4 m/s 746 mmHg 78%
19:00 0°C° 0 mm 4 m/s 745 mmHg 79%
20:00 0°C° 0 mm 5 m/s 745 mmHg 81%
21:00 0°C° 0 mm 5 m/s 744 mmHg 81%
22:00 -1°C° 0 mm 5 m/s 743 mmHg 82%
23:00 -1°C° 0 mm 5 m/s 742 mmHg 82%

Amanhã, 4 Março, Quinta-feira

Tempo Temperatura Precipitação Vento Pressão Humidade
00:00 -1°C° 0 mm 4 m/s 742 mmHg 84%
01:00 -1°C° 0 mm 4 m/s 741 mmHg 86%
02:00 -1°C° 0 mm 4 m/s 741 mmHg 88%
03:00 -1°C° 0 mm 4 m/s 740 mmHg 89%
04:00 -1°C° 0 mm 3 m/s 740 mmHg 91%
05:00 -1°C° 0 mm 3 m/s 739 mmHg 93%
06:00 -1°C° 0.2 mm 3 m/s 739 mmHg 94%
07:00 -1°C° 0.2 mm 3 m/s 738 mmHg 95%
08:00 -1°C° 0.2 mm 3 m/s 738 mmHg 96%
09:00 -1°C° 0.4 mm 3 m/s 738 mmHg 96%
10:00 -1°C° 0.4 mm 3 m/s 738 mmHg 96%
11:00 +1°C° 0.4 mm 2 m/s 738 mmHg 96%
12:00 -1°C° 0.3 mm 2 m/s 738 mmHg 93%
13:00 -1°C° 0.3 mm 2 m/s 738 mmHg 91%
14:00 -1°C° 0.3 mm 2 m/s 737 mmHg 88%
15:00 -1°C° 0.1 mm 2 m/s 737 mmHg 84%
16:00 -1°C° 0.1 mm 2 m/s 737 mmHg 80%
17:00 +1°C° 0.1 mm 1 m/s 737 mmHg 76%
18:00 -2°C° 0 mm 2 m/s 738 mmHg 78%
19:00 -3°C° 0 mm 2 m/s 738 mmHg 80%
20:00 -4°C° 0 mm 2 m/s 738 mmHg 82%
21:00 -4°C° 0 mm 2 m/s 739 mmHg 83%
22:00 -5°C° 0 mm 2 m/s 739 mmHg 84%
23:00 -5°C° 0 mm 2 m/s 739 mmHg 85%

Depois de amanhã, 5 Março, Sexta-feira

Tempo Temperatura Precipitação Vento Pressão Humidade
00:00 -5°C° 0 mm 2 m/s 740 mmHg 85%
01:00 -6°C° 0 mm 2 m/s 740 mmHg 85%
02:00 -6°C° 0 mm 2 m/s 741 mmHg 86%
03:00 -6°C° 0 mm 2 m/s 741 mmHg 85%
04:00 -6°C° 0 mm 2 m/s 741 mmHg 85%
05:00 -7°C° 0 mm 2 m/s 741 mmHg 85%
06:00 -4°C° 0 mm 1 m/s 741 mmHg 83%
07:00 -4°C° 0 mm 1 m/s 742 mmHg 82%
08:00 -4°C° 0 mm 1 m/s 742 mmHg 80%
09:00 -3°C° 0 mm 1 m/s 742 mmHg 73%
10:00 -2°C° 0 mm 1 m/s 742 mmHg 66%
11:00 -1°C° 0 mm 1 m/s 742 mmHg 59%
12:00 -1°C° 0 mm 1 m/s 743 mmHg 58%
13:00 0°C° 0 mm 1 m/s 743 mmHg 56%
14:00 0°C° 0 mm 1 m/s 743 mmHg 55%
15:00 0°C° 0.1 mm 1 m/s 743 mmHg 61%
16:00 -1°C° 0.1 mm 1 m/s 743 mmHg 66%
17:00 -1°C° 0.1 mm 1 m/s 743 mmHg 71%
18:00 -4°C° 0.2 mm 2 m/s 744 mmHg 76%
19:00 -6°C° 0.2 mm 3 m/s 745 mmHg 80%
20:00 -8°C° 0.2 mm 4 m/s 745 mmHg 85%
21:00 -8°C° 0.1 mm 4 m/s 746 mmHg 81%
22:00 -8°C° 0.1 mm 4 m/s 746 mmHg 77%
23:00 -7°C° 0.1 mm 3 m/s 746 mmHg 73%

6 Março, Sábado

Tempo Temperatura Precipitação Vento Pressão Humidade
00:00 -8°C° 0 mm 3 m/s 747 mmHg 76%
01:00 -8°C° 0 mm 3 m/s 747 mmHg 80%
02:00 -9°C° 0 mm 3 m/s 748 mmHg 84%
03:00 -9°C° 0 mm 3 m/s 748 mmHg 84%
04:00 -9°C° 0 mm 3 m/s 748 mmHg 84%
05:00 -9°C° 0 mm 3 m/s 748 mmHg 84%
06:00 -9°C° 0 mm 3 m/s 749 mmHg 84%
07:00 -9°C° 0 mm 3 m/s 749 mmHg 83%
08:00 -9°C° 0 mm 3 m/s 749 mmHg 82%
09:00 -8°C° 0 mm 3 m/s 750 mmHg 75%
10:00 -7°C° 0 mm 3 m/s 750 mmHg 69%
11:00 -6°C° 0 mm 3 m/s 750 mmHg 62%
12:00 -5°C° 0 mm 3 m/s 749 mmHg 57%
13:00 -4°C° 0 mm 4 m/s 749 mmHg 51%
14:00 -4°C° 0 mm 4 m/s 748 mmHg 46%
15:00 -4°C° 0 mm 4 m/s 748 mmHg 48%
16:00 -5°C° 0 mm 5 m/s 747 mmHg 50%
17:00 -5°C° 0 mm 5 m/s 746 mmHg 52%
18:00 -5°C° 0 mm 5 m/s 745 mmHg 54%
19:00 -5°C° 0 mm 6 m/s 744 mmHg 57%
20:00 -6°C° 0 mm 7 m/s 744 mmHg 59%
21:00 -6°C° 0 mm 7 m/s 743 mmHg 61%
22:00 -6°C° 0 mm 7 m/s 742 mmHg 62%
23:00 -4°C° 0 mm 7 m/s 741 mmHg 64%

7 Março, Domingo

Tempo Temperatura Precipitação Vento Pressão Humidade
00:00 -4°C° 0 mm 7 m/s 739 mmHg 70%
01:00 -4°C° 0 mm 7 m/s 738 mmHg 76%
02:00 -6°C° 0 mm 7 m/s 737 mmHg 81%
03:00 -4°C° 0.3 mm 7 m/s 736 mmHg 85%
04:00 -5°C° 0.3 mm 8 m/s 735 mmHg 88%
05:00 -5°C° 0.3 mm 8 m/s 734 mmHg 92%
06:00 -4°C° 1.1 mm 7 m/s 734 mmHg 89%
07:00 -5°C° 1.1 mm 6 m/s 733 mmHg 87%
08:00 -5°C° 1.1 mm 5 m/s 733 mmHg 84%
09:00 -5°C° 0.2 mm 5 m/s 733 mmHg 77%
10:00 -5°C° 0.2 mm 5 m/s 733 mmHg 70%
11:00 -5°C° 0.2 mm 5 m/s 733 mmHg 64%
12:00 -5°C° 0.2 mm 6 m/s 733 mmHg 64%
13:00 -5°C° 0.2 mm 6 m/s 733 mmHg 65%
14:00 -5°C° 0.2 mm 6 m/s 733 mmHg 65%
15:00 -6°C° 0.3 mm 6 m/s 734 mmHg 62%
16:00 -6°C° 0.3 mm 6 m/s 734 mmHg 59%
17:00 -8°C° 0.3 mm 6 m/s 735 mmHg 55%
18:00 -8°C° 0 mm 6 m/s 735 mmHg 60%
19:00 -8°C° 0 mm 5 m/s 736 mmHg 64%
20:00 -8°C° 0 mm 5 m/s 736 mmHg 69%
21:00 -10°C° 0 mm 5 m/s 736 mmHg 73%
22:00 -10°C° 0 mm 5 m/s 737 mmHg 76%
23:00 -10°C° 0 mm 5 m/s 737 mmHg 80%

8 Março, Segunda-feira

Tempo Temperatura Precipitação Vento Pressão Humidade
00:00 -10°C° 0 mm 4 m/s 738 mmHg 81%
01:00 -10°C° 0 mm 4 m/s 738 mmHg 82%
02:00 -10°C° 0 mm 4 m/s 739 mmHg 84%
03:00 -10°C° 0 mm 4 m/s 739 mmHg 82%
04:00 -10°C° 0 mm 3 m/s 739 mmHg 81%
05:00 -10°C° 0 mm 3 m/s 740 mmHg 80%
06:00 -10°C° 0 mm 3 m/s 741 mmHg 81%
07:00 -12°C° 0 mm 3 m/s 741 mmHg 81%
08:00 -12°C° 0 mm 4 m/s 742 mmHg 81%
09:00 -10°C° 0 mm 3 m/s 743 mmHg 78%
10:00 -10°C° 0 mm 3 m/s 743 mmHg 74%
11:00 -10°C° 0 mm 3 m/s 744 mmHg 71%
12:00 -10°C° 0 mm 4 m/s 744 mmHg 70%
13:00 -10°C° 0 mm 4 m/s 745 mmHg 69%
14:00 -10°C° 0 mm 4 m/s 745 mmHg 68%
15:00 -10°C° 0 mm 4 m/s 746 mmHg 69%
16:00 -11°C° 0 mm 4 m/s 746 mmHg 70%
17:00 -11°C° 0 mm 4 m/s 747 mmHg 72%
18:00 -12°C° 0 mm 3 m/s 747 mmHg 75%
19:00 -12°C° 0 mm 3 m/s 748 mmHg 78%
20:00 -12°C° 0 mm 2 m/s 749 mmHg 81%
21:00 -12°C° 0 mm 2 m/s 749 mmHg 82%
22:00 -12°C° 0 mm 2 m/s 750 mmHg 83%
23:00 -12°C° 0 mm 2 m/s 750 mmHg 84%
Mostrar mais

Necessitamos do seu Consentimento

A Meteoprog e os seus Fornecedores de Serviços podem armazenar e aceder a dados pessoais como cookies, identificadores do dispositivo ou outras tecnologias semelhantes existentes no seu dispositivo e processar estes dados para personalizar conteúdos e anúncios, assim como funcionalidades nas redes sociais e análise de tráfego.

  • Armazenar e/ou aceder a informações no seu dispositivo

    Os cookies, identificadores do dispositivo ou outras informações podem ser armazenados ou acedidos no seu dispositivo, para os fins acima indicados.

  • Anúncios e conteúdos personalizados, medição de anúncios e conteúdos, dados sobre o público-alvo e desenvolvimento de produtos

    Os anúncios e os conteúdos podem ser personalizados com base num perfil. Podem ser adicionados dados adicionais para uma maior personalização dos anúncios e dos conteúdos. A eficácia dos anúncios e dos conteúdos pode ser medida. Podem ser obtidas informações sobre o público que visualizou os anúncios e os conteúdos. Estes dados podem ser usados para desenvolver ou melhorar sistemas, softwares ou a experiência do utilizador.

Ao clicar em "Eu concordo”, permitirá o uso de cookies, identificadores do dispositivo e web beacons mencionados ou outras tecnologias semelhantes. As configurações do navegador do seu dispositivo podem ser alteradas.

Para certos fins, podem ser invocados interesses legítimos ao invés de consentimento. Pode ler mais informação sobre este assunto na nossa Política de Privacidade e Cookies.